Location: Peebles
(55.6412°N, 3.1714°W)
Time: 05:21:37
(UTC+00:00)

Cosmos 1898 Rocket - Visible Passes

Search period start: 25 January 2022 00:00
Search period end: 04 February 2022 00:00
Orbit: 754 x 782 km, 74.0° (Epoch: 24 January)

Date Brightness Start Highest point End Pass type
(mag) Time Alt. Az. Time Alt. Az. Time Alt. Az.
25 Jan 6.0 04:13:45 12° N 04:15:05 13° NNE 04:17:26 10° NE visible
25 Jan 5.0 05:54:15 10° NNW 05:58:54 32° NE 06:03:32 10° ESE visible
25 Jan 3.6 07:36:14 10° NNW 07:41:22 64° WSW 07:46:30 10° SSE visible
26 Jan 6.2 03:37:27 11° NNE 03:37:31 11° NNE 03:39:04 10° NNE visible
26 Jan 5.4 05:17:44 11° NNW 05:21:37 24° NE 05:25:48 10° E visible
26 Jan 3.5 06:59:13 10° NNW 07:04:26 87° ENE 07:09:39 10° SSE visible
27 Jan 5.8 04:41:26 13° N 04:44:14 19° NNE 04:47:54 10° ENE visible
27 Jan 4.0 06:22:15 10° NNW 06:27:25 61° ENE 06:32:34 10° SE visible
28 Jan 5.9 04:05:10 14° N 04:06:47 15° NNE 04:09:48 10° ENE visible
28 Jan 4.6 05:45:27 11° NNW 05:50:17 43° NE 05:55:14 10° ESE visible
28 Jan 3.9 07:27:32 10° NW 07:32:26 43° WSW 07:37:18 10° S visible
29 Jan 6.1 03:28:56 13° NNE 03:29:15 13° NNE 03:31:34 10° NE visible
29 Jan 5.1 05:09:13 14° NNW 05:13:05 31° NE 05:17:42 10° ESE visible
29 Jan 3.5 06:50:25 10° NNW 06:55:34 65° WSW 07:00:43 10° SSE visible
30 Jan 6.4 02:52:43 11° NNE 02:52:43 11° NNE 02:53:13 10° NNE visible
30 Jan 5.5 04:32:59 16° N 04:35:47 24° NE 04:39:59 10° E visible
30 Jan 3.5 06:13:24 10° NNW 06:18:38 86° ENE 06:23:51 10° SSE visible
31 Jan 5.8 03:56:48 17° N 03:58:25 19° NNE 04:02:03 10° ENE visible
31 Jan 4.0 05:37:05 14° NNW 05:41:35 60° NE 05:46:44 10° SE visible
31 Jan 4.4 07:18:57 10° NW 07:23:23 29° WSW 07:27:49 10° SSW visible
01 Feb 6.0 03:20:40 15° NNE 03:20:57 15° NNE 03:23:58 10° ENE visible
01 Feb 4.6 05:00:56 18° NNW 05:04:29 42° NE 05:09:25 10° ESE visible
01 Feb 3.8 06:41:42 10° NW 06:46:37 44° WSW 06:51:31 10° S visible
02 Feb 6.4 02:44:34 12° NNE 02:44:34 12° NNE 02:45:43 10° NE visible
02 Feb 5.1 04:24:51 21° N 04:27:16 31° NE 04:31:53 10° ESE visible
02 Feb 3.4 06:05:08 13° NNW 06:09:46 66° WSW 06:14:55 10° SSE visible
03 Feb 5.5 03:48:50 22° NNE 03:49:57 24° NE 03:54:09 10° E visible
03 Feb 3.4 05:29:07 20° NNW 05:32:49 85° ENE 05:38:03 10° SSE visible
03 Feb 4.8 07:10:34 10° NW 07:14:16 20° W 07:17:57 10° SW visible
